Wind_Speed
21 19 17 14 14 20 27 29 20 16 22 19 14 17 18 16 14 13 13 8 15 11 13 6 7 11 13 6 5 6 2 11 8 9 5 3 7 10 13 17 17 20 16
23 24 20 19 17 17 23 31 21 14 20 25 19 19 18 15 14 11 13 9 11 11 11 10 10 7 11 9 4 7 11 11 13 14 15 20 21 19 20 21 16 12 13
24 24 20 20 21 19 20 27 25 21 16 18 21 21 19 17 15 14 14 13 16 14 14 15 12 10 12 12 12 14 12 10 9 12 14 16 14 15 14 13 17 17 18
24 26 23 22 23 23 19 18 22 24 24 23 22 22 21 20 17 15 12 12 13 13 13 14 14 15 15 16 16 15 13 15 17 16 18 17 19 21 17 18 17 16 15
27 27 26 25 23 24 23 23 22 24 24 22 24 23 21 20 18 14 15 17 14 12 14 17 12 15 17 15 18 17 16 17 20 17 15 17 18 15 18 23 22 17 16
27 27 27 26 25 23 24 25 26 24 21 19 20 22 20 20 14 17 17 17 15 15 12 16 20 20 18 16 16 19 21 24 25 24 25 26 27 25 25 26 24 24 27
32 32 32 31 30 27 29 29 26 26 22 21 19 19 19 19 18 19 20 19 20 21 20 15 15 16 15 16 15 14 16 17 19 18 22 23 24 22 23 24 23 24 25
28 29 31 32 31 30 28 30 29 26 26 23 22 20 18 19 19 19 21 21 21 21 20 18 17 16 13 15 16 18 18 18 17 17 20 20 21 20 19 22 26 28 29
29 32 32 32 32 32 30 30 30 28 27 26 24 23 21 18 19 17 17 17 18 18 11 16 15 17 14 16 13 14 17 15 14 17 21 20 19 18 22 23 25 23 23
31 33 34 34 35 35 33 30 30 31 28 25 23 21 21 20 18 19 17 18 13 12 11 14 11 11 9 7 8 11 13 14 12 16 17 15 16 19 16 18 16 16 19
27 32 33 36 37 35 33 30 30 30 29 28 24 22 22 21 15 14 14 14 12 11 11 15 16 13 14 13 12 14 18 21 21 22 23 24 19 18 22 20 18 18 20
27 32 35 36 39 37 36 33 31 28 28 26 25 24 23 17 18 17 18 16 14 14 12 12 12 9 7 12 16 20 20 20 19 20 20 20 21 17 17 18 18 16 20
27 32 36 37 40 38 38 37 33 30 27 28 26 23 18 14 12 9 15 16 16 15 16 14 15 15 16 19 18 15 13 11 14 14 11 13 16 17 18 18 17 21 22
27 29 31 34 36 37 33 36 38 35 34 29 24 21 18 16 17 14 9 11 16 14 13 14 14 12 10 8 9 8 10 12 14 11 13 15 16 17 18 19 18 17 18
26 29 33 35 35 34 37 34 34 37 38 31 34 29 25 19 17 14 8 6 10 10 9 9 10 11 13 14 11 10 11 10 11 13 13 15 18 25 19 17 17 19 21
26 31 36 36 36 36 34 32 30 28 25 24 26 28 22 19 14 16 13 11 10 11 12 14 16 12 14 13 13 13 15 14 19 16 19 19 18 17 14 16 14 15 16
25 27 25 32 33 35 31 34 34 31 24 26 22 22 20 19 18 17 19 19 18 16 17 17 13 10 12 12 16 17 20 24 18 18 17 14 14 14 13 15 13 13 13
17 20 22 15 16 17 32 31 27 32 30 29 27 24 21 18 19 18 18 17 17 16 14 10 9 7 10 14 15 15 19 11 8 11 13 14 14 15 14 12 13 13 13
24 28 29 23 15 49 24 34 29 21 28 28 29 27 25 23 19 17 16 15 12 8 10 8 8 10 12 15 15 16 13 13 11 12 13 13 14 11 14 14 15 17 18
24 23 29 36 45 64 42 40 34 29 26 26 22 29 28 24 22 20 16 15 14 13 10 11 12 14 17 16 16 15 15 17 17 14 15 13 13 15 15 14 15 15 16
12 2 13 6 15 34 53 22 37 33 29 30 24 20 24 25 21 17 14 12 11 8 9 9 12 15 14 8 9 13 12 11 10 7 8 9 10 10 11 12 12 12 11
13 1 10 8 15 16 36 33 30 33 32 33 26 22 14 20 15 14 13 9 5 7 10 11 12 8 4 5 14 17 10 6 4 5 5 5 7 9 9 10 8 8 7
20 14 9 10 13 17 19 23 16 24 24 28 28 25 17 20 18 15 13 11 11 10 8 8 8 7 6 7 12 12 11 6 5 4 4 3 5 5 3 3 3 2 4
20 21 13 11 9 12 4 18 5 12 17 27 20 16 19 19 17 14 12 10 10 9 7 6 7 3 5 9 7 9 9 7 6 1 2 3 3 5 8 8 6 4 4
12 13 13 12 9 12 13 13 7 7 9 21 18 13 15 16 14 13 13 11 8 8 7 7 7 6 9 10 10 7 10 12 11 3 5 6 6 6 6 6 7 6 4
13 11 12 14 22 19 20 18 16 11 10 11 17 16 14 16 15 13 11 9 9 8 8 7 8 7 8 9 8 11 8 7 5 5 6 4 0 3 2 5 3 6 6
Wind_Direction
194 208 200 206 201 195 194 188 186 196 201 206 208 207 198 203 203 199 188 202 208 218 232 251 249 279 257 236 256 249 287 310 280 287 296 179 274 283 292 298 287 276 285
198 206 200 196 200 208 198 191 187 188 201 213 211 211 209 208 218 212 211 215 239 243 265 260 243 270 282 274 295 280 284 280 305 290 282 283 275 279 290 284 298 293 285
201 211 205 198 200 208 205 197 195 200 197 190 199 208 210 213 224 238 239 228 235 246 256 252 268 261 269 284 271 271 271 274 286 284 287 270 278 288 292 281 295 296 286
201 208 204 208 200 200 214 203 202 207 212 208 212 218 213 213 218 226 240 240 249 254 263 255 267 253 262 281 275 270 271 280 274 273 280 282 290 283 285 278 278 290 298
202 206 209 213 212 200 207 207 208 216 218 213 211 213 218 221 220 224 239 243 250 246 238 253 255 274 272 264 274 277 274 269 273 274 275 279 281 291 273 281 279 287 270
206 205 210 214 214 210 202 213 211 219 225 218 216 220 222 219 229 234 249 247 251 254 256 257 258 262 269 273 271 271 271 272 274 274 273 273 274 278 281 280 286 284 278
218 215 212 217 213 214 207 215 215 217 219 220 218 222 228 229 227 237 241 250 257 265 269 273 274 270 258 267 275 266 272 276 281 283 278 279 284 288 285 285 285 287 287
218 215 218 219 218 216 213 213 217 215 221 220 222 225 228 235 235 240 249 251 256 262 261 262 277 279 265 267 269 269 277 279 278 290 291 297 293 295 294 296 295 292 290
216 221 216 214 219 217 216 216 220 218 218 225 226 229 231 233 236 238 252 247 245 272 276 259 269 271 272 271 271 283 287 287 273 282 283 282 284 288 300 298 296 295 290
219 218 216 216 221 221 220 217 218 219 217 220 225 229 234 236 239 242 243 243 252 262 270 287 272 278 269 282 282 286 292 295 272 275 288 283 279 299 304 304 314 301 311
226 219 219 221 222 221 218 223 217 216 216 215 215 220 228 228 225 216 225 236 254 242 255 277 268 255 264 258 266 284 292 293 283 274 271 274 279 286 294 292 290 286 287
227 222 223 221 221 220 218 219 215 212 206 216 212 216 218 229 239 241 234 238 232 228 222 258 274 285 259 263 285 296 295 290 286 281 274 266 263 271 289 277 283 278 282
236 226 220 220 222 219 217 215 212 210 211 210 209 212 211 225 222 234 236 234 235 232 221 235 255 267 277 286 291 296 302 306 319 295 284 288 286 273 268 268 282 295 293
242 234 230 224 220 217 215 215 214 213 208 207 210 204 202 213 223 220 200 235 231 222 226 240 259 273 292 296 295 297 311 314 312 303 290 288 279 273 273 274 272 264 273
238 234 231 225 222 218 214 214 223 218 216 219 210 210 209 212 221 218 203 218 210 218 219 234 254 278 286 289 289 293 287 310 311 289 267 267 280 298 286 290 294 275 275
243 231 228 223 218 212 210 210 211 206 216 219 220 222 214 212 213 194 203 221 197 220 232 237 258 265 272 279 271 263 263 261 269 276 281 288 298 292 298 303 302 295 299
247 224 222 227 218 210 207 212 205 206 212 215 202 206 200 204 208 212 211 217 234 247 247 253 261 263 269 271 275 268 279 294 279 257 268 276 280 291 290 299 301 300 298
254 245 225 229 232 250 212 212 215 214 207 198 200 201 200 196 210 218 219 227 237 246 249 258 253 258 257 250 254 282 304 314 267 275 282 281 282 284 288 285 288 287 283
267 250 229 263 276 303 259 213 202 213 199 200 198 198 200 203 216 229 225 230 226 227 256 264 259 247 265 267 273 293 275 271 269 277 270 279 290 291 275 280 285 285 288
256 251 246 238 278 289 300 228 190 192 188 194 198 205 205 210 215 217 225 225 228 228 224 240 249 252 259 274 284 279 277 271 277 274 270 271 276 277 281 283 282 288 291
287 132 46 203 307 244 268 294 198 196 184 188 201 203 202 201 207 217 215 217 219 198 223 226 255 268 290 307 298 303 281 276 272 281 269 276 281 284 286 290 294 290 291
197 117 55 67 12 325 209 196 253 198 185 184 184 186 175 183 183 188 194 209 241 207 212 236 241 267 309 277 291 303 293 288 288 284 297 303 293 285 289 294 294 300 297
223 211 234 255 244 240 208 219 219 200 171 173 176 175 175 180 180 189 197 191 197 208 223 236 244 242 232 267 294 312 312 285 254 257 272 288 292 305 313 308 320 53 66
240 238 253 233 250 247 11 177 292 163 165 184 175 184 196 198 185 186 194 201 202 210 225 232 252 252 250 254 272 312 317 330 345 317 37 50 43 78 81 70 69 66 58
205 208 177 167 175 185 166 209 261 184 155 160 162 177 181 188 183 187 197 192 205 210 221 232 252 271 266 268 227 252 232 252 292 197 105 79 78 75 67 61 42 27 6
179 214 213 218 171 181 198 204 203 207 193 185 184 188 187 188 189 191 194 197 200 219 220 236 254 241 242 262 243 248 254 235 224 198 161 145 75 308 359 334 323 289 289
Height
1504 1507 1509 1511 1514 1516 1517 1522 1529 1534 1536 1538 1542 1545 1547 1550 1551 1553 1552 1552 1555 1557 1560 1560 1560 1560 1560 1562 1563 1563 1563 1564 1563 1564 1566 1568 1568 1567 1567 1565 1563 1561 1561
1502 1504 1507 1509 1512 1512 1516 1523 1529 1532 1532 1534 1538 1543 1546 1548 1551 1551 1550 1552 1553 1553 1555 1557 1558 1559 1557 1558 1560 1561 1561 1562 1563 1564 1565 1564 1565 1566 1563 1561 1559 1558 1557
1498 1501 1504 1506 1509 1510 1514 1519 1526 1529 1530 1531 1537 1540 1543 1545 1547 1547 1548 1549 1551 1551 1553 1554 1555 1556 1556 1556 1557 1556 1558 1559 1560 1561 1561 1562 1561 1561 1557 1555 1555 1554 1554
1495 1498 1501 1504 1506 1508 1511 1515 1521 1524 1528 1533 1535 1538 1539 1542 1542 1544 1544 1546 1547 1548 1550 1550 1551 1552 1553 1553 1553 1553 1554 1554 1555 1556 1557 1556 1556 1554 1552 1551 1550 1553 1554
1491 1495 1497 1500 1504 1506 1508 1512 1515 1518 1523 1527 1531 1532 1534 1534 1536 1538 1540 1543 1544 1547 1548 1547 1547 1546 1547 1548 1548 1549 1550 1550 1550 1551 1550 1550 1549 1549 1548 1546 1545 1548 1540
1487 1493 1495 1497 1500 1503 1505 1507 1510 1512 1515 1518 1521 1523 1525 1528 1532 1533 1536 1538 1540 1541 1543 1543 1544 1543 1544 1544 1544 1546 1546 1546 1546 1547 1546 1546 1544 1545 1543 1540 1539 1540 1540
1483 1487 1491 1494 1496 1498 1501 1503 1505 1508 1511 1513 1516 1518 1521 1524 1527 1531 1534 1534 1535 1536 1538 1538 1538 1539 1540 1539 1540 1540 1542 1542 1542 1542 1541 1540 1539 1539 1538 1535 1534 1531 1528
1479 1482 1485 1488 1492 1495 1498 1500 1502 1506 1508 1511 1514 1516 1518 1520 1523 1527 1530 1531 1532 1533 1533 1533 1534 1534 1534 1535 1535 1536 1536 1536 1537 1537 1536 1535 1535 1534 1533 1532 1530 1527 1524
1474 1476 1479 1483 1487 1490 1493 1498 1500 1502 1505 1508 1511 1513 1515 1517 1519 1523 1525 1526 1528 1528 1528 1529 1530 1530 1530 1531 1532 1532 1532 1532 1532 1532 1532 1531 1531 1530 1529 1527 1525 1523 1520
1467 1471 1474 1478 1480 1482 1483 1486 1492 1497 1499 1503 1507 1510 1512 1514 1515 1517 1518 1521 1523 1524 1526 1526 1527 1527 1528 1527 1528 1528 1528 1528 1528 1528 1527 1526 1526 1525 1525 1523 1522 1519 1518
1462 1465 1469 1471 1472 1475 1479 1483 1486 1491 1495 1498 1500 1504 1507 1508 1510 1512 1514 1516 1518 1520 1522 1524 1523 1523 1524 1524 1525 1524 1524 1523 1522 1522 1522 1522 1521 1520 1518 1517 1515 1515 1514
1455 1459 1461 1463 1466 1469 1473 1477 1481 1486 1489 1493 1496 1499 1502 1504 1505 1507 1510 1511 1513 1515 1519 1519 1519 1519 1520 1521 1520 1519 1518 1517 1516 1515 1515 1515 1515 1515 1515 1513 1511 1511 1509
1452 1451 1453 1456 1459 1463 1466 1470 1474 1479 1483 1486 1489 1494 1498 1499 1500 1503 1506 1508 1509 1511 1514 1515 1516 1517 1517 1516 1515 1514 1514 1513 1512 1510 1509 1510 1512 1511 1509 1508 1507 1506 1505
1448 1450 1452 1453 1455 1458 1461 1464 1467 1471 1475 1479 1485 1486 1492 1494 1495 1499 1500 1503 1505 1507 1510 1511 1512 1513 1512 1511 1510 1509 1509 1509 1508 1507 1507 1508 1506 1505 1503 1503 1503 1502 1501
1440 1442 1444 1446 1449 1452 1457 1459 1461 1464 1468 1472 1476 1482 1485 1487 1488 1492 1494 1497 1501 1503 1506 1507 1508 1508 1508 1507 1506 1504 1504 1505 1505 1504 1503 1503 1503 1502 1500 1500 1498 1497 1497
1435 1433 1434 1438 1443 1447 1452 1451 1456 1462 1465 1468 1471 1474 1479 1482 1484 1486 1489 1492 1497 1500 1502 1503 1504 1504 1504 1504 1503 1501 1500 1502 1501 1500 1500 1500 1500 1499 1498 1496 1495 1494 1493
1426 1423 1426 1437 1438 1441 1445 1448 1452 1457 1462 1466 1471 1471 1473 1477 1482 1484 1486 1488 1492 1495 1497 1497 1498 1499 1500 1499 1496 1495 1496 1496 1494 1494 1495 1496 1495 1495 1494 1493 1492 1492 1490
1423 1422 1420 1423 1429 1441 1442 1443 1447 1451 1457 1459 1465 1468 1471 1474 1478 1481 1483 1484 1486 1489 1492 1493 1493 1494 1494 1492 1491 1490 1490 1490 1490 1491 1491 1492 1492 1491 1490 1489 1488 1487 1487
1416 1419 1414 1418 1420 1437 1441 1442 1444 1445 1454 1459 1462 1463 1466 1469 1473 1476 1479 1480 1481 1484 1487 1489 1490 1490 1488 1487 1487 1487 1486 1485 1485 1486 1487 1487 1487 1487 1486 1485 1484 1483 1481
1407 1407 1405 1411 1415 1421 1422 1431 1434 1440 1447 1452 1455 1458 1460 1463 1468 1471 1474 1476 1477 1479 1482 1485 1484 1483 1483 1484 1483 1482 1481 1480 1481 1480 1481 1482 1482 1483 1482 1482 1481 1481 1480
1409 1405 1406 1410 1418 1416 1404 1413 1417 1437 1444 1448 1450 1451 1452 1456 1464 1467 1469 1471 1471 1474 1479 1480 1479 1479 1480 1478 1478 1477 1476 1477 1476 1476 1477 1478 1478 1478 1478 1477 1477 1477 1477
1411 1409 1410 1418 1414 1396 1416 1426 1428 1435 1437 1439 1445 1450 1450 1453 1461 1464 1467 1467 1468 1472 1476 1477 1477 1478 1477 1476 1475 1474 1474 1473 1474 1475 1475 1475 1475 1475 1475 1475 1475 1475 1474
1414 1416 1416 1417 1416 1421 1423 1422 1424 1427 1431 1437 1441 1443 1448 1453 1459 1462 1464 1465 1467 1469 1472 1473 1474 1475 1475 1475 1474 1474 1473 1472 1472 1473 1472 1473 1474 1473 1472 1472 1472 1472 1473
1408 1412 1417 1420 1419 1420 1417 1422 1424 1427 1433 1438 1437 1439 1445 1452 1455 1457 1460 1461 1463 1467 1469 1470 1472 1473 1473 1474 1474 1473 1472 1472 1472 1472 1472 1472 1472 1472 1473 1473 1473 1474 1475
1403 1407 1411 1414 1410 1419 1421 1422 1422 1425 1429 1430 1430 1438 1444 1450 1452 1454 1456 1459 1461 1464 1466 1468 1469 1471 1471 1473 1473 1472 1473 1473 1472 1472 1472 1473 1473 1475 1475 1474 1473 1473 1475
1402 1405 1407 1410 1417 1422 1428 1426 1425 1427 1428 1433 1436 1439 1442 1446 1449 1451 1452 1455 1459 1462 1463 1466 1466 1468 1470 1470 1471 1471 1471 1471 1471 1471 1472 1473 1474 1474 1474 1474 1473 1474 1475